Weather reports worldwide

Advertisment
Ponza, Italy (16280): temperature & dewpoint: 08.12.2019 05:00:00 - 14.12.2019 05:00:00 (CET)Ponza, Italy (16280): wind speed & gusts: 08.12.2019 05:00:00 - 14.12.2019 05:00:00 (CET)Ponza, Italy (16280): wind direction: 08.12.2019 05:00:00 - 14.12.2019 05:00:00 (CET)Ponza, Italy (16280): reduced air pressure: 08.12.2019 05:00:00 - 14.12.2019 05:00:00 (CET)Ponza, Italy (16280): visibility: 08.12.2019 05:00:00 - 14.12.2019 05:00:00 (CET)Ponza, Italy (16280): sunshine duration: 08.12.2019 05:00:00 - 14.12.2019 05:00:00 (CET)
Date & Time tt [°C] td [°C] ff [km/h] ff [kn] fx [km/h] fx [kn] dd ppp [hPa] vv [km] sd [min]
14.12.2019 05:00:00 - - - - - - - - - -
14.12.2019 04:00:00 13,2 11,2 41 22 - - NNW 993,8 10 -
14.12.2019 03:00:00 13,4 11,1 41 22 72 39 NW 992,8 10 -
14.12.2019 02:00:00 - - - - - - - - - -
14.12.2019 01:00:00 13,6 8,2 48 26 - - WNW 989,9 10 -
14.12.2019 00:00:00 13,4 8,5 93 50 120 65 WNW 990,0 10 -
13.12.2019 23:00:00 14,0 9,0 59 32 108 58 WNW 988,1 10 -
13.12.2019 22:00:00 12,4 9,4 74 40 - - WNW 987,4 10 -
13.12.2019 21:00:00 12,0 8,7 87 47 109 59 WNW 986,6 10 -
13.12.2019 20:00:00 12,4 10,0 39 21 62 34 WNW 986,9 10 -
13.12.2019 19:00:00 12,6 8,9 107 58 - - WNW 985,5 10 -
13.12.2019 18:00:00 14,8 11,0 4 2 94 51 N 984,6 10 -
13.12.2019 17:00:00 15,0 12,0 48 26 100 54 W 985,6 10 -
13.12.2019 16:00:00 15,0 14,0 44 24 - - SW 987,7 10 0
13.12.2019 15:00:00 14,6 14,3 42 23 79 42 SW 990,5 10 0
13.12.2019 14:00:00 13,6 13,3 42 23 72 39 SW 992,6 10 0
13.12.2019 13:00:00 13,6 13,3 44 24 - - SW 992,9 10 0
13.12.2019 12:00:00 14,4 14,1 46 25 72 39 SSW 995,7 10 0
13.12.2019 11:00:00 12,6 12,1 44 24 73 39 SSW 996,5 8 0
13.12.2019 10:00:00 13,2 11,6 44 24 - - SSW 996,9 10 -
13.12.2019 09:00:00 13,0 9,6 34 18 51 28 S 997,9 10 -
13.12.2019 08:00:00 12,0 10,6 22 12 35 19 S 999,8 10 0
13.12.2019 07:00:00 12,0 9,4 21 11 - - SSW 1000,7 10 -
13.12.2019 06:00:00 11,4 9,5 4 2 - - N 1001,2 10 -
13.12.2019 05:00:00 11,2 8,8 4 2 18 10 N 1002,1 10 -
13.12.2019 04:00:00 11,6 9,4 16 9 - - W 1002,5 10 -
13.12.2019 03:00:00 11,4 7,1 13 7 24 13 WSW 1003,0 10 -
13.12.2019 02:00:00 - - - - - - - - - -
13.12.2019 01:00:00 10,6 7,5 15 8 - - WNW 1003,9 10 -
13.12.2019 00:00:00 9,6 6,7 18 10 29 16 NW 1004,2 10 -
12.12.2019 23:00:00 9,4 8,3 28 15 53 29 WNW 1004,1 10 -
12.12.2019 22:00:00 10,6 7,5 11 6 - - WNW 1004,1 10 -
12.12.2019 21:00:00 10,0 7,6 16 9 - - WNW 1003,8 10 -
12.12.2019 20:00:00 9,6 7,7 13 7 - - NNW 1004,1 10 -
12.12.2019 19:00:00 9,6 8,5 13 7 - - NW 1004,1 10 -
12.12.2019 18:00:00 10,2 7,4 11 6 - - NNW 1003,0 10 -
12.12.2019 17:00:00 10,2 8,6 21 11 29 16 NNW 1003,3 10 -
12.12.2019 16:00:00 11,2 9,1 31 17 - - N 1003,0 10 24
12.12.2019 15:00:00 10,4 7,6 4 2 19 11 N 1003,1 10 12
12.12.2019 14:00:00 12,0 9,4 8 4 - - WSW 1003,7 10 24
12.12.2019 13:00:00 10,6 9,0 9 5 - - NNW 1004,2 20 60
12.12.2019 12:00:00 10,4 8,8 18 10 25 14 NNW 1004,1 20 48
12.12.2019 11:00:00 10,8 10,4 18 10 32 17 NNW 1004,5 10 0
12.12.2019 10:00:00 10,0 9,2 11 6 - - SW 1004,8 10 0
12.12.2019 09:00:00 9,6 9,6 4 2 - - N 1005,0 10 0
12.12.2019 08:00:00 9,2 9,2 16 9 - - SE 1005,3 10 -
12.12.2019 07:00:00 10,8 5,6 8 4 - - SSE 1005,0 20 -
12.12.2019 06:00:00 - - - - - - - - - -
12.12.2019 05:00:00 10,6 5,4 11 6 18 10 WNW 1005,8 30 -
12.12.2019 04:00:00 10,4 5,2 15 8 - - WNW 1006,1 30 -
12.12.2019 03:00:00 10,4 4,8 13 7 27 14 W 1007,1 30 -
12.12.2019 02:00:00 11,0 7,5 4 2 23 12 N 1007,6 30 -
12.12.2019 01:00:00 11,4 7,1 9 5 - - W 1008,1 30 -
12.12.2019 00:00:00 11,0 7,1 8 4 19 10 WNW 1008,7 30 -
11.12.2019 23:00:00 10,8 6,4 9 5 19 10 WNW 1009,1 30 -
11.12.2019 22:00:00 11,0 6,7 5 3 - - - 1009,5 20 -
11.12.2019 21:00:00 11,0 7,3 9 5 - - SSW 1009,6 30 -
11.12.2019 20:00:00 11,0 7,7 11 6 - - SSW 1009,7 30 -
11.12.2019 19:00:00 11,0 8,4 9 5 - - SW 1009,7 20 -
11.12.2019 18:00:00 11,4 8,8 5 3 - - WSW 1009,5 30 -
11.12.2019 17:00:00 12,0 9,2 4 2 16 9 N 1009,4 30 -
11.12.2019 16:00:00 12,4 8,1 4 2 - - N 1009,3 30 18
11.12.2019 15:00:00 13,4 7,6 8 4 - - SSE 1009,5 40 30
11.12.2019 14:00:00 13,2 7,4 8 4 - - SE 1010,0 40 48
11.12.2019 13:00:00 13,2 8,7 13 7 - - ESE 1010,4 40 60
11.12.2019 12:00:00 13,0 7,9 15 8 27 15 ESE 1011,0 40 60
11.12.2019 11:00:00 13,0 7,5 15 8 29 16 E 1011,3 35 60
11.12.2019 10:00:00 12,8 7,3 15 8 - - E 1012,0 30 60
11.12.2019 09:00:00 12,0 6,7 15 8 25 13 ESE 1011,4 25 60
11.12.2019 08:00:00 11,4 6,9 13 7 23 12 SE 1011,1 20 12
11.12.2019 07:00:00 11,4 6,9 15 8 - - ESE 1011,1 20 -
11.12.2019 06:00:00 - - - - - - - - - -
11.12.2019 05:00:00 - - - - - - - - - -
11.12.2019 04:00:00 11,4 5,1 22 12 - - NE 1012,3 35 -
11.12.2019 03:00:00 11,6 5,7 11 6 - - NE 1012,2 30 -
11.12.2019 02:00:00 - - - - - - - - - -
11.12.2019 01:00:00 12,0 5,0 22 12 - - NNE 1012,1 30 -
11.12.2019 00:00:00 12,2 5,6 24 13 34 18 NE 1012,1 25 -
10.12.2019 23:00:00 12,2 7,7 11 6 21 11 NE 1011,6 30 -
10.12.2019 22:00:00 12,6 6,2 21 11 - - NE 1011,2 25 -
10.12.2019 21:00:00 12,6 8,9 13 7 20 11 NE 1011,0 20 -
10.12.2019 20:00:00 13,0 8,9 11 6 21 11 ENE 1010,8 20 -
10.12.2019 19:00:00 12,8 7,5 4 2 - - N 1010,1 15 -
10.12.2019 18:00:00 12,8 7,2 11 6 - - W 1009,5 10 0
10.12.2019 17:00:00 13,0 8,5 11 6 21 12 WNW 1009,0 15 0
10.12.2019 16:00:00 13,4 8,2 15 8 - - NNE 1008,7 15 0
10.12.2019 15:00:00 13,4 8,0 35 19 48 26 NNE 1008,0 15 0
10.12.2019 14:00:00 13,2 9,1 26 14 38 21 NNE 1007,9 15 0
10.12.2019 13:00:00 13,0 8,3 29 16 - - NNE 1007,9 15 0
10.12.2019 12:00:00 12,8 9,2 35 19 55 30 NNE 1008,0 15 0
10.12.2019 11:00:00 12,6 10,1 22 12 36 20 NNE 1008,0 10 0
10.12.2019 10:00:00 12,4 11,5 13 7 - - ESE 1007,2 10 0
10.12.2019 09:00:00 11,4 9,8 9 5 - - E 1007,0 10 0
10.12.2019 08:00:00 11,2 7,3 15 8 - - SW 1006,0 10 0
10.12.2019 07:00:00 11,2 10,7 0 0 - - N 1006,0 8 -
10.12.2019 06:00:00 - - - - - - - - - -
10.12.2019 05:00:00 12,2 11,9 13 7 32 17 WSW 1006,1 8 -
10.12.2019 04:00:00 12,2 11,7 4 2 - - N 1006,1 10 -
10.12.2019 03:00:00 12,4 11,1 4 2 17 9 N 1006,6 10 -
10.12.2019 02:00:00 12,4 11,1 15 8 - - NNE 1006,8 10 -
10.12.2019 01:00:00 12,4 11,3 4 2 - - N 1007,0 10 -
10.12.2019 00:00:00 12,6 11,8 16 9 - - NNW 1007,4 10 -
09.12.2019 23:00:00 12,8 12,7 16 9 - - NNE 1008,0 8 -
09.12.2019 22:00:00 13,8 13,5 11 6 - - NNW 1007,8 8 -
09.12.2019 21:00:00 14,0 13,7 18 10 40 22 W 1008,0 10 -
09.12.2019 20:00:00 14,0 12,4 18 10 37 20 W 1008,0 10 -
09.12.2019 19:00:00 14,0 12,0 16 9 - - W 1008,2 10 -
09.12.2019 18:00:00 14,2 13,9 26 14 42 23 WNW 1008,2 10 -
09.12.2019 17:00:00 14,2 11,9 21 11 39 21 WNW 1008,6 10 -
09.12.2019 16:00:00 14,2 12,2 22 12 - - - 1008,7 4,0 0
09.12.2019 15:00:00 14,4 14,1 4 2 52 28 N 1008,8 8 0
09.12.2019 14:00:00 14,4 14,1 4 2 39 21 N 1010,7 10 0
09.12.2019 13:00:00 14,6 12,6 18 10 - - WSW 1011,8 10 -
09.12.2019 12:00:00 15,2 12,2 24 13 38 21 W 1013,0 10 12
09.12.2019 11:00:00 14,8 10,8 18 10 34 19 W 1013,7 15 30
09.12.2019 10:00:00 15,0 11,2 4 2 - - N 1013,7 15 60
09.12.2019 09:00:00 15,0 13,7 13 7 24 13 W 1014,3 15 24
09.12.2019 08:00:00 14,6 13,3 13 7 24 13 W 1013,9 10 0
09.12.2019 07:00:00 15,0 14,7 24 13 - - WNW 1014,1 10 -
09.12.2019 06:00:00 14,8 14,2 15 8 28 15 SW 1014,9 10 -
09.12.2019 05:00:00 - - - - - - - - - -
09.12.2019 04:00:00 15,0 13,7 13 7 - - S 1015,9 20 -
09.12.2019 03:00:00 15,0 14,0 16 9 - - S 1016,3 20 -
09.12.2019 02:00:00 - - - - - - - - - -
09.12.2019 01:00:00 15,0 13,7 9 5 - - S 1018,7 20 -
09.12.2019 00:00:00 - - 4 2 - - N 1012,5 20 -
08.12.2019 23:00:00 14,8 13,2 8 4 - - W 1019,0 20 -
08.12.2019 22:00:00 14,8 13,2 5 3 - - W 1019,4 20 -
08.12.2019 21:00:00 14,6 12,5 5 3 - - NW 1019,7 20 -
08.12.2019 20:00:00 14,8 12,7 5 3 - - NW 1019,6 20 -
08.12.2019 19:00:00 15,0 13,0 8 4 - - NNW 1019,7 20 -
08.12.2019 18:00:00 15,4 13,1 5 3 - - NW 1019,9 20 -
08.12.2019 17:00:00 16,0 13,1 5 3 - - WNW 1020,0 20 0
08.12.2019 16:00:00 16,8 13,5 8 4 - - WSW 1020,1 20 60
08.12.2019 15:00:00 17,0 13,5 8 4 - - W 1020,7 20 60
08.12.2019 14:00:00 17,0 13,1 8 4 - - W 1021,1 20 60
08.12.2019 13:00:00 18,0 13,9 4 2 - - N 1021,0 20 60
08.12.2019 12:00:00 17,0 13,9 9 5 - - W 1021,7 20 60
08.12.2019 11:00:00 17,2 13,3 8 4 - - W 1021,9 20 60
08.12.2019 10:00:00 16,2 12,7 8 4 - - W 1022,0 20 60
08.12.2019 09:00:00 15,2 12,7 9 5 - - WSW 1022,0 20 60
08.12.2019 08:00:00 14,6 12,5 8 4 - - W 1021,2 15 24
08.12.2019 07:00:00 14,6 12,6 9 5 - - W 1021,2 15 -
08.12.2019 06:00:00 14,6 12,6 8 4 - - WSW 1021,0 10 -
08.12.2019 05:00:00 14,8 13,2 13 7 - - WNW 1021,1 10 -

tt = temperature
td = dewpoint
ff = wind speed
fx = gusts
dd = wind direction
ppp = reduced air pressure
vv = visibility
sd = sunshine duration

Next stations